Theta_e
317 312 314 322 316 314 318 322 324 326 331 341 341 347 348 347 353 360 347 351 347 348 348 344 341 338 337 334 330 330 329 330 332 328 324 329 332 334 335 336 336 335 334 335 327 325 327 325 325
311 313 320 314 314 316 317 319 322 323 326 343 347 350 351 351 342 344 353 352 345 347 348 345 342 339 337 335 331 330 329 331 332 326 325 330 332 334 334 334 335 333 328 331 324 324 329 328 324
314 315 314 311 310 315 317 319 321 321 323 346 353 349 350 350 348 351 353 351 347 347 348 345 343 340 337 336 333 331 330 331 332 326 325 330 332 333 334 334 333 327 325 326 323 325 328 327 326
316 315 314 311 314 314 319 320 320 321 323 326 351 357 346 348 348 350 353 349 347 347 347 346 344 342 339 336 334 332 331 332 331 327 327 330 332 331 333 332 326 326 325 324 324 325 328 328 329
317 312 315 311 313 313 316 317 318 320 321 323 352 349 346 345 353 352 352 349 346 347 347 346 345 344 341 337 336 332 332 332 331 327 329 330 332 333 333 331 327 328 326 325 325 328 332 332 334
314 310 311 313 313 316 316 317 319 320 321 322 349 348 344 354 355 353 351 348 346 346 347 347 346 345 344 340 337 334 333 333 332 327 329 332 336 335 334 331 329 330 328 327 327 330 333 335 338
312 312 312 313 315 316 318 318 318 320 320 322 351 351 348 356 355 354 350 348 347 344 345 345 344 344 344 344 339 337 334 334 334 329 326 332 337 338 336 331 328 331 330 330 329 330 334 339 340
311 311 316 315 317 316 317 320 321 321 323 323 349 350 352 355 356 354 351 351 347 345 345 346 344 344 344 344 342 340 336 335 335 333 327 329 335 340 339 335 328 329 333 331 330 331 332 333 335
314 313 313 315 317 316 317 319 321 322 322 322 335 347 348 355 353 353 355 354 353 350 346 348 349 344 344 345 344 341 340 335 336 336 332 328 334 338 340 338 331 328 327 330 330 330 331 331 331
316 313 314 314 316 315 316 317 318 321 320 321 350 345 350 352 350 354 354 354 353 352 348 347 350 351 348 347 346 343 342 337 337 338 336 331 328 331 332 336 331 328 327 326 326 327 328 328 328
316 318 316 316 316 316 317 318 318 319 320 321 340 346 348 349 349 353 353 353 352 350 349 348 348 350 353 353 351 349 345 340 338 340 339 334 328 327 329 334 331 328 327 326 325 324 324 324 323
319 318 318 318 318 317 318 317 318 317 316 317 320 345 347 348 349 352 352 352 350 349 348 345 345 345 349 351 352 352 348 342 340 341 341 338 331 328 328 332 330 330 331 331 329 327 326 324 327
318 320 319 318 317 318 318 318 318 316 316 316 318 334 346 346 345 349 351 350 349 348 346 344 342 344 348 347 351 347 345 343 342 342 343 341 334 331 333 331 337 336 337 337 336 333 329 332 335
314 316 318 318 319 318 317 317 315 317 316 316 316 323 342 346 345 344 348 349 348 346 345 342 339 341 343 345 343 344 344 344 343 343 342 342 337 330 336 338 338 340 341 341 341 339 337 338 338
313 315 315 317 317 317 318 319 317 317 316 315 315 317 324 336 341 346 345 347 347 345 343 342 339 338 342 344 342 338 340 342 342 342 341 337 335 331 336 339 340 339 341 342 343 341 341 340 340
320 319 320 319 318 318 318 321 321 320 316 317 316 316 318 319 323 335 346 346 345 343 343 343 342 341 343 343 343 340 336 337 338 337 336 333 333 331 336 340 342 341 341 342 341 340 341 342 343
318 323 321 321 318 318 318 321 321 320 317 317 317 314 316 316 319 320 331 347 346 343 344 343 343 341 342 341 342 341 338 338 341 340 340 338 338 335 333 338 340 342 340 338 338 343 344 343 345
321 322 320 322 319 319 318 320 320 320 319 317 314 315 316 315 315 318 320 334 346 344 344 344 343 341 345 344 344 342 340 342 343 343 342 343 342 342 332 335 337 340 344 349 347 349 349 348 348
319 320 321 321 320 319 320 320 320 319 318 319 315 316 313 314 314 317 319 326 346 346 345 344 343 342 344 351 348 345 346 345 345 346 345 345 345 344 342 336 342 348 344 347 350 349 348 347 347
317 319 320 319 318 317 318 318 318 318 318 320 319 315 318 313 312 314 316 343 347 347 347 347 346 345 345 348 352 349 346 350 347 346 347 347 349 347 346 343 343 348 348 351 350 349 348 346 347
317 317 317 317 317 316 316 317 317 317 318 319 319 319 317 317 314 313 313 318 348 348 348 348 347 346 346 348 350 352 353 350 351 353 350 352 353 351 349 348 348 349 349 350 350 350 349 346 344
319 316 317 319 318 316 316 319 317 316 317 321 320 319 318 316 315 315 313 314 346 348 348 347 347 346 348 350 351 349 351 353 352 353 353 353 355 355 352 351 351 352 352 351 351 348 345 343 337
323 320 322 323 323 322 321 316 315 316 318 318 318 318 317 317 317 315 314 313 326 348 348 347 345 344 349 351 351 352 352 351 351 352 354 353 352 355 355 353 352 353 352 351 349 346 344 344 345
319 321 322 323 322 326 322 320 319 315 315 317 318 319 319 318 314 315 314 315 323 352 351 350 348 349 348 342 352 351 353 355 354 353 355 355 355 352 353 352 351 350 349 347 345 344 344 344 343
320 323 327 328 328 330 322 323 320 315 315 317 318 318 318 316 314 314 313 314 319 347 355 353 352 354 353 352 356 356 353 354 355 356 356 354 352 353 353 352 350 348 346 346 345 344 343 342 341
318 319 326 328 329 322 321 325 320 318 315 316 317 318 319 317 316 316 313 313 320 335 353 357 355 355 357 358 356 356 355 354 355 354 355 354 352 352 351 349 348 345 345 344 341 338 337 336 334
320 321 320 324 322 325 325 322 319 318 318 316 316 317 318 317 316 317 316 313 323 332 344 355 358 357 357 358 356 355 353 352 351 351 351 351 351 349 347 345 344 342 340 337 335 334 331 331 330
318 320 320 317 324 326 323 322 320 319 322 321 323 323 322 318 312 315 317 314 325 331 336 345 355 357 357 355 354 352 351 349 350 350 351 350 347 345 343 340 337 335 333 332 333 329 324 323 320
321 322 320 319 322 322 320 317 321 319 325 326 325 324 327 327 317 312 317 317 320 329 332 337 345 352 351 351 351 351 351 350 350 350 349 346 343 341 338 333 329 326 323 322 321 319 318 317 315
321 319 321 321 321 324 321 320 324 326 328 327 327 326 331 333 333 322 317 317 316 326 328 333 349 350 347 347 345 344 344 344 344 344 341 338 334 333 328 323 321 319 316 316 316 313 310 309 306
Wind_Speed
12 11 9 3 3 4 5 8 5 7 8 4 3 5 10 11 17 6 12 32 37 39 34 33 31 29 28 26 25 25 25 25 25 26 27 29 28 27 24 22 21 19 18 18 17 17 16 16 16
10 7 2 2 4 0 6 6 7 13 5 7 9 10 4 9 3 6 17 29 45 42 37 34 31 30 28 27 25 25 25 25 25 26 28 27 26 24 23 21 19 17 17 18 17 17 16 16 17
11 3 3 4 4 7 7 5 8 8 4 6 5 3 4 5 6 19 17 40 47 43 37 34 32 31 29 27 25 24 24 25 25 25 27 26 25 22 21 19 17 16 16 16 16 16 15 15 15
3 4 3 4 9 9 16 12 3 14 17 9 5 3 3 9 8 21 40 49 49 44 39 35 33 31 29 28 26 24 23 24 24 25 25 25 23 21 19 17 17 16 15 16 15 15 15 15 14
2 3 2 4 9 9 11 10 6 15 7 4 8 5 4 7 20 40 46 47 50 44 40 36 34 31 29 28 26 25 24 24 24 24 25 24 22 21 18 17 16 15 15 15 15 15 14 13 12
2 3 1 8 8 13 9 8 4 10 9 13 10 8 6 20 36 40 41 44 48 46 40 37 34 32 30 28 27 26 25 23 23 24 25 24 22 20 18 16 15 14 14 14 14 14 13 11 10
5 4 5 5 8 11 14 3 7 9 7 19 9 9 1 21 33 36 41 42 44 43 40 37 34 32 30 29 28 26 25 24 23 23 24 24 22 20 18 16 16 14 13 13 13 13 12 9 7
4 4 4 5 10 11 6 3 3 4 13 12 19 8 8 17 30 32 36 40 42 41 40 37 35 33 32 31 29 28 27 25 23 22 22 23 22 19 17 16 14 14 13 11 11 11 10 9 8
2 3 6 7 6 7 9 5 3 5 8 4 6 6 18 38 34 32 27 28 36 36 39 34 33 34 33 32 31 29 27 26 24 22 21 23 23 20 17 15 14 13 13 12 11 11 11 11 10
6 5 11 7 10 8 9 8 8 9 13 10 6 8 31 38 36 29 26 24 27 32 39 37 32 30 31 32 31 31 29 28 27 25 22 21 21 21 18 16 13 13 12 12 11 11 11 12 12
7 12 10 6 12 12 18 24 5 8 8 4 7 20 23 26 25 23 27 36 33 34 34 35 33 30 29 25 28 29 30 29 27 25 23 21 21 21 21 18 16 14 13 13 12 12 13 13 13
9 10 15 8 9 8 14 11 20 4 10 7 6 13 25 25 22 21 26 30 33 36 37 39 35 32 30 29 24 25 29 30 28 26 24 23 22 21 21 19 18 16 15 14 14 14 13 14 13
11 11 10 12 12 17 16 24 24 17 13 13 5 7 16 22 22 28 34 33 32 34 39 42 38 34 30 29 29 31 32 30 29 27 25 23 23 21 19 20 19 17 16 15 15 15 16 15 15
5 6 15 16 16 14 17 20 5 29 9 11 2 11 15 20 21 22 29 33 39 38 44 47 43 38 34 29 29 30 30 30 29 28 27 26 25 24 23 21 21 19 18 16 15 14 16 17 17
6 12 15 17 4 6 2 12 23 28 4 10 9 8 9 10 10 19 33 32 38 37 39 48 46 43 39 34 30 31 30 30 29 30 28 26 26 27 25 23 23 21 19 16 17 17 18 21 21
6 5 8 2 12 5 8 26 30 5 7 12 11 8 9 7 8 14 27 31 31 34 38 41 43 45 43 38 35 32 32 30 29 28 27 27 27 28 27 22 22 23 18 17 17 19 20 19 18
4 13 13 10 1 6 13 30 30 7 9 11 10 8 9 9 7 16 23 34 40 43 45 44 45 46 48 41 38 35 32 32 28 27 27 26 26 26 29 26 16 20 19 17 17 16 15 17 13
7 11 8 16 4 6 12 27 19 8 9 13 10 8 9 9 11 12 21 25 36 45 50 50 49 43 40 41 39 37 35 34 30 29 29 26 27 25 28 27 21 19 16 12 13 12 11 12 11
13 14 14 11 8 11 19 25 18 11 8 14 10 11 10 11 10 17 16 26 35 42 42 45 48 46 41 33 31 29 31 34 34 31 30 30 30 29 27 28 23 19 19 15 15 15 14 17 13
16 20 23 20 16 15 20 21 13 8 9 15 16 11 15 8 9 8 17 28 35 38 41 41 43 46 40 31 29 28 31 33 35 31 29 34 31 33 31 30 28 24 22 20 16 16 15 14 9
18 18 18 19 17 18 18 20 13 8 6 8 17 17 18 17 14 10 10 18 27 34 40 46 44 44 40 30 30 21 20 23 27 26 29 28 29 31 32 30 29 23 25 23 19 18 16 13 17
16 17 17 14 9 11 5 16 16 6 9 9 10 18 17 16 12 12 11 8 26 34 41 46 53 43 39 37 33 31 28 22 27 30 26 23 21 25 31 31 29 22 20 18 18 15 10 15 17
12 13 5 9 1 2 8 3 5 6 7 9 10 9 15 19 18 13 10 16 29 32 41 44 47 45 45 42 41 36 27 33 28 21 21 26 25 22 24 29 23 19 16 14 12 11 9 10 13
19 13 6 6 1 6 11 5 14 9 8 8 9 8 12 20 11 11 12 21 27 34 38 42 44 42 42 47 41 38 32 29 25 27 28 27 23 18 18 19 17 9 7 6 5 6 6 6 3
8 4 2 4 6 5 9 5 12 8 13 14 18 14 10 11 9 9 10 10 17 30 36 41 42 39 42 43 39 39 40 35 30 26 29 24 22 22 20 14 12 9 7 7 6 3 1 2 4
7 10 5 4 4 5 6 6 11 19 13 8 19 17 9 11 11 13 13 12 15 27 33 36 42 39 38 40 39 41 37 33 32 30 27 23 20 17 15 14 11 11 10 7 9 8 6 5 8
4 5 12 9 9 1 4 6 10 17 14 15 13 14 9 9 10 15 16 12 17 24 31 35 38 39 40 39 35 36 34 33 29 23 21 20 20 21 19 17 16 14 12 10 12 14 13 11 10
6 4 3 2 6 5 5 6 10 7 4 6 5 8 8 9 9 10 14 12 22 30 34 35 36 40 37 34 34 31 32 31 30 27 24 24 26 25 23 19 18 17 15 13 14 16 15 13 13
3 2 4 4 4 4 3 7 1 6 3 7 8 11 15 11 13 10 14 16 25 30 31 32 30 30 33 34 35 35 33 33 31 29 28 28 26 22 24 24 22 19 19 18 18 16 12 10 9
3 3 1 3 5 4 4 9 1 1 2 4 9 12 20 13 9 13 17 19 14 26 28 28 32 31 33 39 38 36 36 36 37 35 31 29 30 29 28 26 23 20 18 16 13 11 9 8 10
Wind_Direction
296 305 307 356 42 64 256 251 244 339 321 215 171 141 142 164 143 225 166 163 168 164 165 163 157 153 148 143 141 139 138 137 136 134 134 134 132 130 129 130 130 130 131 132 131 130 128 129 129
316 343 119 76 107 220 263 214 254 247 279 354 88 105 128 181 250 107 126 175 168 164 167 166 161 156 153 148 146 144 142 141 141 139 139 138 136 133 133 132 132 132 134 135 136 136 134 134 135
305 298 103 152 167 205 242 139 250 286 315 249 100 35 152 194 196 155 173 167 166 163 169 167 164 161 158 154 152 149 148 145 145 144 144 144 140 137 137 136 136 137 139 139 139 141 140 138 140
321 25 1 147 219 245 236 267 333 310 304 193 151 157 284 239 164 164 159 165 163 164 169 169 167 164 162 159 156 155 154 150 149 149 148 148 146 144 142 141 139 141 143 144 145 146 145 143 143
202 69 241 218 238 252 252 250 258 280 275 339 243 165 211 354 150 149 156 161 163 165 170 171 170 167 166 163 162 161 161 157 155 156 155 154 151 149 147 146 144 145 147 149 149 149 149 149 148
16 104 166 226 234 245 255 242 239 261 295 290 203 156 170 140 135 147 156 160 165 165 170 172 173 170 170 170 168 167 167 164 161 161 162 160 157 156 155 153 151 152 153 154 155 157 158 161 163
149 112 228 235 236 257 252 196 220 261 259 286 184 141 266 151 149 151 154 156 164 166 169 172 173 174 174 174 173 173 173 171 167 167 168 168 165 164 163 163 161 159 159 161 163 167 170 178 190
155 123 242 234 241 261 262 250 177 256 277 305 172 154 179 166 152 142 144 157 162 169 172 173 174 176 177 178 179 179 178 177 175 173 174 176 173 172 172 171 171 168 167 170 174 184 194 206 220
102 159 223 219 233 259 300 296 126 301 285 326 256 185 166 149 144 135 138 146 159 171 177 174 175 178 179 180 182 182 182 183 180 179 180 181 183 181 183 183 181 181 181 186 191 198 210 223 235
166 198 217 196 223 266 288 285 1 345 317 324 314 112 144 149 151 148 154 159 160 169 179 179 176 176 178 179 180 184 185 187 186 185 185 187 188 189 190 192 193 194 197 201 208 216 225 237 246
201 231 221 234 232 253 271 278 288 265 290 273 250 154 157 157 157 157 166 167 170 171 172 182 179 177 174 172 176 183 187 189 190 190 191 190 191 194 196 197 198 201 206 213 218 225 234 246 256
255 239 234 256 261 268 268 299 280 289 260 273 320 200 164 164 165 166 167 167 166 168 172 183 186 183 180 181 173 179 187 192 194 196 196 195 196 197 202 203 206 208 214 224 230 235 245 250 255
228 236 249 250 241 249 264 259 269 281 263 276 162 230 189 175 171 174 173 170 163 166 173 183 186 184 185 191 187 189 194 195 199 201 202 203 203 202 203 207 210 213 220 230 241 245 247 251 252
257 235 252 252 253 242 244 264 258 261 223 262 158 243 209 193 180 171 169 172 172 171 176 181 184 186 188 193 197 196 198 202 204 205 208 208 209 207 207 210 217 223 228 240 248 253 256 260 262
252 267 279 252 223 224 256 275 246 255 190 243 258 212 235 191 178 169 175 175 175 178 172 177 183 186 188 190 195 201 203 207 207 211 212 211 211 211 209 215 222 227 230 239 248 255 262 261 266
291 251 255 310 240 226 191 261 254 256 213 226 241 213 248 232 186 173 162 171 171 170 172 176 179 185 188 193 194 197 202 205 211 214 215 214 214 213 212 215 228 228 230 235 241 253 257 252 256
239 255 274 294 212 227 197 254 259 223 223 231 240 188 218 251 233 184 182 166 176 175 176 179 183 186 189 192 196 198 202 203 207 213 216 213 213 215 215 217 224 222 232 243 241 248 237 237 227
232 260 257 257 190 256 261 261 265 248 231 233 224 213 198 215 232 222 166 175 170 178 183 184 187 187 188 191 194 196 201 201 204 214 218 219 217 213 214 218 222 222 225 241 245 241 241 257 268
267 274 272 274 262 228 250 265 263 254 228 240 220 226 191 213 231 225 202 171 173 176 179 181 184 189 185 189 183 190 198 200 202 215 222 224 224 218 213 215 218 218 228 243 246 248 253 264 272
243 254 261 275 267 264 265 268 269 257 237 234 229 222 238 193 219 214 222 158 168 173 180 185 191 192 187 186 188 195 194 200 205 209 223 226 227 222 218 217 217 220 229 230 235 246 258 276 289
242 242 258 255 263 259 271 275 262 246 254 255 241 225 219 217 198 213 202 175 166 173 181 189 196 194 192 191 193 194 195 205 204 206 215 221 224 222 220 220 222 224 224 232 239 244 251 263 277
252 261 272 288 256 249 237 260 257 227 230 235 240 232 222 220 217 197 194 164 176 181 183 190 193 191 195 195 194 193 191 201 206 209 212 219 221 224 224 224 225 224 217 227 241 250 264 276 279
268 286 322 306 305 195 281 249 268 191 245 240 230 233 226 227 209 207 200 179 188 182 184 190 191 194 195 194 201 200 198 207 211 209 215 224 230 233 229 219 221 213 216 230 233 262 264 256 264
252 259 331 280 186 255 250 189 261 238 216 261 264 266 246 222 215 197 198 185 180 182 184 189 193 194 198 196 201 201 193 198 204 207 206 208 206 212 195 215 221 214 209 219 219 232 243 250 274
228 105 283 224 214 220 226 256 252 258 244 221 245 249 224 222 206 202 197 187 174 183 183 185 188 191 195 193 195 195 196 203 199 189 192 185 197 185 188 192 186 182 170 180 173 203 162 51 48
190 169 189 248 183 240 230 203 248 251 262 249 240 247 229 219 221 209 202 199 186 177 183 186 187 186 187 188 192 195 202 200 192 196 187 182 190 182 174 167 166 166 158 151 124 118 97 89 64
180 167 196 209 260 247 235 280 283 263 263 263 255 245 244 216 223 224 217 187 183 176 180 188 186 182 185 183 182 189 191 187 180 175 177 172 161 158 155 148 142 135 131 128 114 100 87 88 80
158 158 172 313 187 208 241 242 241 303 253 299 284 296 276 286 229 215 219 201 184 180 180 179 182 176 176 170 172 170 169 165 161 164 159 154 149 144 136 134 129 122 121 118 116 106 100 97 81
139 206 87 115 165 185 264 254 310 275 15 303 299 299 296 267 255 221 210 208 188 176 175 169 167 152 142 146 152 151 152 155 156 150 149 146 140 136 133 126 122 120 111 109 106 99 90 81 66
93 79 29 179 214 244 170 249 271 6 342 275 305 318 299 249 228 232 209 202 178 169 163 158 141 138 132 136 134 132 139 143 139 137 136 136 130 131 130 128 122 115 107 104 97 88 71 52 33